TimePDT,TemperatureF,Dew PointF,Humidity,Sea Level PressureIn,VisibilityMPH,Wind Direction,Wind SpeedMPH,Gust SpeedMPH,PrecipitationIn,Events,Conditions,WindDirDegrees,DateUTC
12:56 AM,75.9,37.0,24,29.89,10.0,South,5.8,-,N/A,,Clear,180,2013-07-25 07:56:00
1:56 AM,72.0,36.0,27,29.90,10.0,SE,4.6,-,N/A,,Clear,130,2013-07-25 08:56:00
2:56 AM,72.0,37.0,28,29.91,10.0,Calm,Calm,-,N/A,,Clear,0,2013-07-25 09:56:00
3:56 AM,70.0,37.0,30,29.92,10.0,SSW,3.5,-,N/A,,Clear,200,2013-07-25 10:56:00
4:56 AM,66.9,39.0,36,29.94,10.0,Calm,Calm,-,N/A,,Clear,0,2013-07-25 11:56:00
5:56 AM,64.9,37.9,37,29.95,10.0,SE,4.6,-,N/A,,Clear,140,2013-07-25 12:56:00
6:56 AM,70.0,46.0,42,29.97,10.0,ENE,4.6,-,N/A,,Clear,70,2013-07-25 13:56:00
7:56 AM,73.0,46.0,38,29.98,10.0,Variable,4.6,-,N/A,,Clear,0,2013-07-25 14:56:00
8:56 AM,75.9,46.0,35,29.99,10.0,Variable,3.5,-,N/A,,Clear,0,2013-07-25 15:56:00
9:56 AM,81.0,45.0,28,29.98,10.0,NE,4.6,-,N/A,,Clear,50,2013-07-25 16:56:00
10:56 AM,87.1,43.0,21,29.97,10.0,Calm,Calm,-,N/A,,Clear,0,2013-07-25 17:56:00
11:56 AM,91.0,42.1,18,29.96,10.0,Calm,Calm,-,N/A,,Clear,0,2013-07-25 18:56:00
12:56 PM,91.9,39.9,16,29.94,10.0,Calm,Calm,-,N/A,,Clear,0,2013-07-25 19:56:00
1:56 PM,98.1,36.0,11,29.93,10.0,NW,8.1,-,N/A,,Clear,310,2013-07-25 20:56:00
2:56 PM,99.0,35.1,11,29.91,10.0,NNW,5.8,-,N/A,,Clear,330,2013-07-25 21:56:00
3:56 PM,99.0,34.0,10,29.89,10.0,Calm,Calm,-,N/A,,Clear,0,2013-07-25 22:56:00
4:56 PM,100.9,32.0,9,29.89,10.0,NNW,9.2,18.4,N/A,,Clear,330,2013-07-25 23:56:00
5:56 PM,100.9,30.0,8,29.88,10.0,NW,6.9,-,N/A,,Clear,320,2013-07-26 00:56:00
6:56 PM,99.0,25.0,7,29.88,10.0,WNW,12.7,-,N/A,,Clear,300,2013-07-26 01:56:00
7:56 PM,93.9,23.0,8,29.89,10.0,NW,6.9,-,N/A,,Clear,310,2013-07-26 02:56:00
8:56 PM,88.0,23.0,9,29.91,10.0,West,4.6,-,N/A,,Clear,280,2013-07-26 03:56:00
9:56 PM,87.1,21.0,9,29.92,10.0,Variable,3.5,-,N/A,,Clear,0,2013-07-26 04:56:00
10:56 PM,81.0,21.9,11,29.94,10.0,South,3.5,-,N/A,,Clear,170,2013-07-26 05:56:00
11:56 PM,77.0,24.1,14,29.94,10.0,SW,3.5,-,N/A,,Clear,230,2013-07-26 06:56:00